GW1549 Weather Reports


Display with metric or nautical units.
time (UTC)temp
F
wind
direction
speed
MPH
gust
MPH
rain 1hr
in
rain 24hr
in
rain mn
in
humidity
%
barometer
mb
20260508121537 44 225 3.0 3.0 0.00 0.00 0.00 83 1010.8
20260508120920 43 208 1.0 2.0 0.00 0.00 0.00 84 1010.4
20260508115710 42 227 0.0 0.0 0.00 0.00 0.00 85 1010.8
20260508115148 42 215 0.0 0.0 0.00 0.00 0.00 85 1010.4
20260508114519 41 234 2.0 2.0 0.00 0.00 0.00 85 1010.4
20260508113930 41 229 2.0 2.0 0.00 0.00 0.00 86 1010.4
20260508113316 41 268 2.0 2.0 0.00 0.00 0.00 86 1010.4
20260508112719 40 314 1.0 1.0 0.00 0.00 0.00 86 1010.1
20260508112143 40 233 2.0 2.0 0.00 0.00 0.00 86 1010.4
20260508111542 40 211 2.0 2.0 0.00 0.00 0.00 87 1010.1
20260508110922 39 217 1.0 2.0 0.00 0.00 0.00 87 1010.4
20260508110326 39 225 2.0 2.0 0.00 0.00 0.00 88 1010.1
20260508105142 38 324 0.0 0.0 0.00 0.00 0.00 92 1010.1
20260508103936 38 350 0.0 0.0 0.00 0.00 0.00 91 1010.1
20260508103338 38 358 0.0 0.0 0.00 0.00 0.00 90 1010.1
20260508102715 38 353 0.0 0.0 0.00 0.00 0.00 89 1010.1
20260508102115 38 329 0.0 0.0 0.00 0.00 0.00 89 1010.1
20260508101512 38 327 0.0 0.0 0.00 0.00 0.00 90 1009.8
20260508100938 38 238 0.0 0.0 0.00 0.00 0.00 90 1009.8
20260508100331 38 258 0.0 0.0 0.00 0.00 0.00 90 1009.4
20260508095748 38 310 0.0 0.0 0.00 0.00 0.00 90 1009.8
20260508095130 38 299 0.0 1.0 0.00 0.00 0.00 91 1009.8
20260508094522 38 262 0.0 0.0 0.00 0.00 0.00 93 1009.8
20260508093943 38 317 0.0 0.0 0.00 0.00 0.00 93 1009.8
20260508092722 37 334 0.0 0.0 0.00 0.00 0.00 94 1009.8
20260508092142 38 350 0.0 0.0 0.00 0.00 0.00 94 1009.8
20260508091528 37 355 0.0 0.0 0.00 0.00 0.00 93 1009.8
20260508090932 38 5 0.0 0.0 0.00 0.00 0.00 91 1009.4
20260508085139 39 317 0.0 0.0 0.00 0.00 0.00 90 1009.4
20260508084547 38 297 0.0 0.0 0.00 0.00 0.00 91 1009.4
20260508083912 38 314 0.0 0.0 0.00 0.00 0.00 91 1009.4
20260508083313 38 313 0.0 0.0 0.00 0.00 0.00 91 1009.4
20260508082735 38 231 0.0 1.0 0.00 0.00 0.00 92 1009.4
20260508082150 38 242 0.0 0.0 0.00 0.00 0.00 93 1009.4
20260508081537 38 297 0.0 0.0 0.00 0.00 0.00 94 1009.4
20260508080328 38 348 0.0 0.0 0.00 0.00 0.00 95 1009.4
20260508075731 38 355 0.0 0.0 0.00 0.00 0.00 95 1009.4
20260508075120 38 340 0.0 0.0 0.00 0.00 0.00 96 1009.4
20260508074529 38 302 0.0 0.0 0.00 0.00 0.00 96 1009.4
20260508073327 37 0 0.0 0.0 0.00 0.00 0.00 96 1009.4
20260508072733 37 15 0.0 0.0 0.00 0.00 0.00 96 1009.4
20260508072115 38 359 0.0 0.0 0.00 0.00 0.00 96 1009.4
20260508071537 38 342 0.0 0.0 0.00 0.00 0.00 96 1009.4
20260508070950 38 345 0.0 0.0 0.00 0.00 0.00 96 1009.4
20260508070338 38 353 0.0 0.0 0.00 0.00 0.00 96 1009.4
20260508065738 38 351 0.0 0.0 0.00 0.00 0.00 96 1009.4
20260508065133 37 357 0.0 0.0 0.00 0.00 0.00 95 1009.4
20260508064520 38 0 0.0 0.0 0.00 0.00 0.00 95 1009.4
20260508063925 37 1 0.0 0.0 0.00 0.00 0.00 94 1009.4
20260508063318 38 1 0.0 0.0 0.00 0.00 0.00 94 1009.8
20260508062742 37 1 0.0 0.0 0.00 0.00 0.00 94 1009.8
20260508062146 37 1 0.0 0.0 0.00 0.00 0.00 93 1009.8
20260508061530 37 1 0.0 0.0 0.00 0.00 0.00 93 1009.8
20260508060909 38 0 0.0 0.0 0.00 0.00 0.00 92 1009.4
20260508060341 37 0 0.0 0.0 0.00 0.00 0.00 92 1009.8
20260508055751 38 0 0.0 0.0 0.00 0.00 0.00 91 1009.8
20260508055141 39 0 0.0 0.0 0.00 0.00 0.00 91 1009.8
20260508054544 40 0 0.0 0.0 0.00 0.00 0.00 91 1009.4
20260508052737 40 357 0.0 0.0 0.00 0.00 0.00 90 1009.8
20260508052132 40 357 0.0 0.0 0.00 0.00 0.00 90 1009.8
20260508051526 40 358 0.0 1.0 0.00 0.00 0.00 91 1009.8
20260508050945 39 12 0.0 0.0 0.00 0.00 0.00 90 1009.8
20260508050309 39 13 0.0 0.0 0.00 0.00 0.00 89 1009.8
20260508045724 40 14 0.0 0.0 0.00 0.00 0.00 88 1009.8
20260508045128 40 14 0.0 0.0 0.00 0.00 0.00 88 1009.8
20260508044542 40 354 0.0 0.0 0.00 0.00 0.00 87 1009.8
20260508043936 40 354 0.0 0.0 0.00 0.00 0.00 87 1009.8
20260508043347 40 354 0.0 0.0 0.00 0.00 0.00 87 1009.8
20260508042723 40 354 0.0 0.0 0.00 0.00 0.00 87 1009.8
20260508042141 40 354 0.0 0.0 0.00 0.00 0.00 87 1010.1
20260508041532 41 353 0.0 0.0 0.00 0.00 0.00 87 1009.8
20260508040318 42 353 0.0 0.0 0.00 0.00 0.00 85 1009.8
20260508035120 43 352 0.0 0.0 0.00 0.00 0.00 81 1009.4
20260508034526 44 349 0.0 0.0 0.00 0.00 0.00 80 1009.8
20260508033916 44 344 0.0 0.0 0.00 0.00 0.00 81 1009.8
20260508033321 44 338 0.0 0.0 0.00 0.00 0.00 80 1009.8
20260508032734 44 355 0.0 0.0 0.00 0.00 0.00 78 1009.8
20260508032146 44 356 0.0 0.0 0.00 0.00 0.00 77 1009.8
20260508031526 43 357 0.0 0.0 0.00 0.00 0.00 81 1009.8
20260508030931 43 0 0.0 0.0 0.00 0.00 0.00 83 1009.8
20260508030311 44 0 0.0 0.0 0.00 0.00 0.00 82 1009.8
20260508025719 45 0 0.0 0.0 0.00 0.00 0.00 79 1009.8
20260508025114 45 0 0.0 0.0 0.00 0.00 0.00 76 1010.1
20260508024525 45 0 0.0 0.0 0.00 0.00 0.00 79 1009.8
20260508023946 45 0 0.0 0.0 0.00 0.00 0.00 76 1009.4
20260508023341 47 0 0.0 0.0 0.00 0.00 0.00 73 1010.1
20260508022723 48 0 0.0 0.0 0.00 0.00 0.00 68 1009.4
20260508021515 48 359 0.0 0.0 0.00 0.00 0.00 62 1009.4
20260508020945 49 0 0.0 0.0 0.00 0.00 0.00 66 1009.4
20260508020349 49 0 0.0 0.0 0.00 0.00 0.00 60 1009.8
20260508015738 49 359 0.0 1.0 0.00 0.00 0.00 61 1009.4
20260508015145 49 6 0.0 0.0 0.00 0.00 0.00 60 1009.4
20260508014517 50 6 0.0 0.0 0.00 0.00 0.00 59 1009.4
20260508012725 50 19 0.0 0.0 0.00 0.00 0.00 57 1009.1
20260508011528 50 22 0.0 0.0 0.00 0.00 0.00 61 1008.8
20260508010935 50 24 0.0 1.0 0.00 0.00 0.00 59 1008.8
20260508010349 51 20 0.0 0.0 0.00 0.00 0.00 58 1008.8
20260508005736 52 30 0.0 0.0 0.00 0.00 0.00 58 1008.8
20260508003908 53 41 1.0 1.0 0.00 0.00 0.00 54 1008.8
20260508003340 54 23 0.0 0.0 0.00 0.00 0.00 55 1008.4
20260508002734 54 24 0.0 0.0 0.00 0.00 0.00 50 1008.4
20260508002111 55 355 2.0 2.0 0.00 0.00 0.00 50 1008.4
20260508001532 55 30 0.0 0.0 0.00 0.00 0.00 52 1008.4
20260508000949 56 43 1.0 1.0 0.00 0.00 0.00 50 1008.4
20260508000335 56 28 0.0 0.0 0.00 0.00 0.00 49 1008.1
20260507235747 57 34 1.0 1.0 0.00 0.00 0.00 49 1008.1
20260507235119 57 29 0.0 0.0 0.00 0.00 0.00 48 1008.1
20260507234551 57 13 1.0 2.0 0.00 0.00 0.00 50 1008.1
20260507233938 57 228 0.0 1.0 0.00 0.00 0.00 48 1008.1
20260507233347 58 30 1.0 2.0 0.00 0.00 0.00 46 1007.7
20260507231535 58 2 2.0 2.0 0.00 0.00 0.00 45 1008.1
20260507225744 60 30 4.0 4.0 0.00 0.00 0.00 41 1007.7
20260507225120 60 18 1.0 2.0 0.00 0.00 0.00 41 1007.7
20260507224527 61 240 5.0 6.0 0.00 0.00 0.00 39 1007.7
20260507223918 61 317 1.0 2.0 0.00 0.00 0.00 39 1007.7
20260507223338 62 57 1.0 2.0 0.00 0.00 0.00 39 1007.7
20260507222719 61 236 3.0 4.0 0.00 0.00 0.00 40 1007.4
20260507221516 62 283 3.0 4.0 0.00 0.00 0.00 37 1007.4
20260507220312 62 326 3.0 3.0 0.00 0.00 0.00 39 1007.4
20260507215738 62 271 3.0 3.0 0.00 0.00 0.00 39 1007.4
20260507215144 62 43 2.0 3.0 0.00 0.00 0.00 40 1007.1
20260507213944 63 243 4.0 6.0 0.00 0.00 0.00 36 1007.4
20260507212737 63 310 6.0 9.0 0.00 0.00 0.00 36 1007.1
20260507211532 62 275 4.0 6.0 0.00 0.00 0.00 37 1007.1
20260507210928 62 334 2.0 3.0 0.00 0.00 0.00 38 1007.1
20260507210344 63 56 2.0 2.0 0.00 0.00 0.00 37 1007.1
20260507204547 64 341 3.0 3.0 0.00 0.00 0.00 39 1006.7
20260507202737 64 16 4.0 4.0 0.00 0.00 0.00 42 1006.7
20260507202152 63 296 4.0 6.0 0.00 0.00 0.00 37 1006.4
20260507201538 63 313 1.0 2.0 0.00 0.00 0.00 40 1006.7
20260507200938 62 303 2.0 4.0 0.00 0.00 0.00 40 1006.7
20260507195752 62 308 2.0 2.0 0.00 0.00 0.00 41 1007.1
20260507195151 64 198 4.0 6.0 0.00 0.00 0.00 40 1007.1
20260507194514 63 276 3.0 4.0 0.00 0.00 0.00 42 1007.1
20260507193951 63 347 1.0 1.0 0.00 0.00 0.00 43 1007.1
20260507192732 64 261 6.0 7.0 0.00 0.00 0.00 42 1007.1
20260507192146 64 81 1.0 1.0 0.00 0.00 0.00 42 1007.1
20260507191535 64 273 4.0 6.0 0.00 0.00 0.00 42 1007.1
20260507190936 63 54 1.0 1.0 0.00 0.00 0.00 45 1007.1
20260507185724 63 46 1.0 2.0 0.00 0.00 0.00 42 1007.4
20260507185150 64 246 6.0 8.0 0.00 0.00 0.00 39 1007.4
20260507184549 63 287 3.0 4.0 0.00 0.00 0.00 45 1007.4
20260507183951 63 271 5.0 8.0 0.00 0.00 0.00 41 1007.4
20260507183308 62 307 3.0 3.0 0.00 0.00 0.00 40 1007.7
20260507182714 64 295 4.0 8.0 0.00 0.00 0.00 42 1007.4
20260507182150 62 264 4.0 10.0 0.00 0.00 0.00 41 1007.4
20260507181510 63 239 6.0 7.0 0.00 0.00 0.00 43 1007.7
20260507180928 64 338 4.0 7.0 0.00 0.00 0.00 45 1007.7
20260507180324 62 72 2.0 3.0 0.00 0.00 0.00 45 1007.7
20260507174520 62 229 4.0 6.0 0.00 0.00 0.00 48 1007.7
20260507173945 62 242 3.0 4.0 0.00 0.00 0.00 44 1007.7
20260507172732 61 51 2.0 2.0 0.00 0.00 0.00 44 1007.7
20260507172129 62 254 3.0 7.0 0.00 0.00 0.00 46 1007.7
20260507170911 61 297 4.0 7.0 0.00 0.00 0.00 43 1008.1
20260507170321 61 261 2.0 3.0 0.00 0.00 0.00 48 1008.1
20260507165750 61 322 0.0 0.0 0.00 0.00 0.00 46 1008.1
20260507165135 59 91 2.0 3.0 0.00 0.00 0.00 47 1008.4
20260507163923 60 218 2.0 4.0 0.00 0.00 0.00 48 1008.4
20260507162722 59 153 3.0 4.0 0.00 0.00 0.00 48 1008.4
20260507162152 60 270 4.0 4.0 0.00 0.00 0.00 50 1008.4
20260507161555 60 54 0.0 0.0 0.00 0.00 0.00 50 1008.4
20260507160923 59 225 4.0 6.0 0.00 0.00 0.00 49 1008.4
20260507160346 60 23 0.0 0.0 0.00 0.00 0.00 52 1008.4
20260507155731 59 330 0.0 1.0 0.00 0.00 0.00 52 1008.4
20260507155123 59 280 4.0 6.0 0.00 0.00 0.00 50 1008.8
20260507154519 58 313 4.0 6.0 0.00 0.00 0.00 51 1008.8
20260507153911 59 303 3.0 4.0 0.00 0.00 0.00 51 1008.8
20260507153315 59 173 2.0 3.0 0.00 0.00 0.00 54 1008.8
20260507152750 58 262 3.0 3.0 0.00 0.00 0.00 51 1008.4
20260507151534 59 284 3.0 4.0 0.00 0.00 0.00 53 1008.4
20260507150347 57 310 2.0 3.0 0.00 0.00 0.00 52 1008.8
20260507145715 59 283 1.0 2.0 0.00 0.00 0.00 56 1008.8
20260507145111 58 81 1.0 2.0 0.00 0.00 0.00 55 1008.8
20260507144515 58 266 1.0 2.0 0.00 0.00 0.00 55 1008.8
20260507143939 58 2 0.0 1.0 0.00 0.00 0.00 58 1008.8
20260507143320 57 32 0.0 0.0 0.00 0.00 0.00 56 1008.8
20260507142123 57 241 3.0 6.0 0.00 0.00 0.00 59 1008.8
20260507141517 57 203 2.0 3.0 0.00 0.00 0.00 58 1008.8
20260507140926 56 27 0.0 0.0 0.00 0.00 0.00 60 1008.8
20260507140342 56 235 1.0 2.0 0.00 0.00 0.00 61 1008.8
20260507135143 56 53 1.0 1.0 0.00 0.00 0.00 63 1009.1
20260507134519 56 190 1.0 3.0 0.00 0.00 0.00 68 1009.1
20260507133319 54 337 0.0 0.0 0.00 0.00 0.00 65 1009.4
20260507132743 54 321 0.0 1.0 0.00 0.00 0.00 68 1009.4
20260507132122 53 313 0.0 0.0 0.00 0.00 0.00 73 1009.4
20260507130911 52 134 0.0 1.0 0.00 0.00 0.00 74 1009.4
20260507130311 52 336 0.0 0.0 0.00 0.00 0.00 77 1009.4
20260507124550 50 257 2.0 3.0 0.00 0.00 0.00 79 1009.8
20260507123943 49 22 0.0 0.0 0.00 0.00 0.00 80 1009.4
20260507123343 48 37 0.0 0.0 0.00 0.00 0.00 82 1009.4
20260507122748 47 2 0.0 0.0 0.00 0.00 0.00 84 1009.4
20260507122127 46 289 0.0 1.0 0.00 0.00 0.00 89 1009.4